Погода в Григишкесе

Литва     54°40′14″N   25°05′38″E
темп.,
°C
ветер,
м/с
пор.,
м/с
влажн.,
%
обл.,
%
осадки,
мм/ч
давл.,
гПа
погр.,
м
18 апреля, вс
вс1800:00+7всв389498 0.0 1021150
03:00+7св2395100 0.0 102146
06:00+6св349438 0.0 102158
09:00+10св478216 0.0 1020316
12:00+14всв576112 0.0 1020943
15:00+16всв564929 0.0 10201403
18:00+16всв56515 0.0 10201505
21:00+10всв36650 0.0 102297
19 апреля, пн
пн1900:00+7в35720 0.0 102275
03:00+6в22795 0.0 102328
06:00+5всв228213 0.0 102226
09:00+9в476841 0.0 1023343
12:00+13в575340 0.1 10221860
15:00+13в6752100 0.3 10221957
18:00+11в466399 0.1 10221048
21:00+9св3875100 0.2 1022294
20 апреля, вт
вт2000:00+8в4981100 0.3 1021399
03:00+5всв379544 0.3 1021173
06:00+4всв239674 0.0 102052
09:00+7всв3586100 0.1 1019474
12:00+10всв4564100 0.4 10171340
15:00+10св4458100 0.8 10161380
18:00+10ссв345894 0.2 10141148
21:00+6всв22778 0.3 101413
21 апреля, ср
ср2100:00+3вюв11895 0.0 101310
03:00+3сз11905 0.0 101210
06:00+2сз22925 0.0 101115
09:00+6сз35715 0.0 1010366
12:00+10зсз465370 0.0 10091793
15:00+10сз4753100 0.1 10081530
18:00+11зсз46525 0.1 10081383
21:00+7зюз227214 0.2 100931
22 апреля, чт
чт2200:00+5зюз33833 0.0 101044
03:00+4ююз22844 0.0 101128
06:00+3ююв368748 0.0 101188
09:00+8ю587489 0.0 1011455
12:00+8юз4583100 0.1 1013709
15:00+7з4587100 2.6 1014704
18:00+9зюз1368100 0.2 1015811
21:00+6юв228117 0.4 101620